| time (UTC) | temp C | wind direction | speed KPH | gust KPH | rain 1hr cm | rain 24hr cm | rain mn cm | humidity % | barometer mb |
| 20260905080059 | 10 | 0 | 0.0 | 0.0 | 0.00 | 1.47 | 0.00 | 99 | 1016.7 |
| 20260905074603 | 10 | 0 | 0.0 | 0.0 | 0.00 | 1.47 | 0.00 | 99 | 1016.6 |
| 20260905073106 | 10 | 0 | 0.0 | 1.6 | 0.00 | 1.47 | 0.00 | 99 | 1016.6 |
| 20260905071601 | 10 | 0 | 0.0 | 0.0 | 0.00 | 1.47 | 0.00 | 99 | 1016.4 |
| 20260905070105 | 10 | 0 | 0.0 | 0.0 | 0.00 | 1.47 | 0.00 | 99 | 1016.5 |
| 20260905064555 | 10 | 0 | 0.0 | 0.0 | 0.00 | 1.52 | 1.47 | 99 | 1016.2 |
| 20260905063104 | 10 | 0 | 0.0 | 3.2 | 0.00 | 1.52 | 1.47 | 99 | 1016.2 |
| 20260905061604 | 10 | 0 | 0.0 | 1.6 | 0.00 | 1.52 | 1.47 | 99 | 1016.2 |
| 20260905060101 | 10 | 0 | 0.0 | 1.6 | 0.00 | 1.52 | 1.47 | 99 | 1016.0 |
| 20260905054558 | 10 | 0 | 0.0 | 0.0 | 0.00 | 1.52 | 1.47 | 99 | 1016.2 |
| 20260905053141 | 10 | 0 | 0.0 | 1.6 | 0.00 | 1.52 | 1.47 | 99 | 1016.2 |
| 20260905051601 | 10 | 0 | 0.0 | 0.0 | 0.00 | 1.52 | 1.47 | 99 | 1016.0 |
| 20260905044559 | 10 | 0 | 0.0 | 1.6 | 0.00 | 1.52 | 1.47 | 99 | 1015.8 |
| 20260905043100 | 10 | 0 | 0.0 | 1.6 | 0.00 | 1.52 | 1.47 | 99 | 1015.9 |
| 20260905041601 | 10 | 0 | 0.0 | 0.0 | 0.00 | 1.52 | 1.47 | 98 | 1015.9 |
| 20260905040103 | 11 | 0 | 0.0 | 0.0 | 0.00 | 1.52 | 1.47 | 99 | 1015.7 |
| 20260905034605 | 11 | 0 | 0.0 | 0.0 | 0.00 | 1.52 | 1.47 | 98 | 1015.5 |
| 20260905033106 | 11 | 0 | 0.0 | 0.0 | 0.00 | 1.52 | 1.47 | 98 | 1015.4 |
| 20260905031559 | 11 | 0 | 0.0 | 1.6 | 0.00 | 1.52 | 1.47 | 98 | 1015.3 |
| 20260905024621 | 11 | 0 | 0.0 | 0.0 | 0.00 | 1.52 | 1.47 | 98 | 1015.3 |
| 20260905023123 | 12 | 0 | 0.0 | 3.2 | 0.00 | 1.52 | 1.47 | 98 | 1015.4 |
| 20260905021605 | 12 | 0 | 0.0 | 0.0 | 0.00 | 1.52 | 1.47 | 98 | 1015.4 |
| 20260905020108 | 12 | 0 | 0.0 | 1.6 | 0.00 | 1.52 | 1.47 | 98 | 1015.3 |
| 20260905014601 | 12 | 0 | 0.0 | 3.2 | 0.00 | 1.52 | 1.47 | 98 | 1015.1 |
| 20260905013104 | 12 | 0 | 0.0 | 3.2 | 0.00 | 1.52 | 1.47 | 97 | 1014.9 |
| 20260905011621 | 12 | 0 | 0.0 | 1.6 | 0.00 | 1.52 | 1.47 | 97 | 1014.9 |
| 20260905010058 | 13 | 0 | 0.0 | 1.6 | 0.00 | 1.52 | 1.47 | 98 | 1014.5 |
| 20260905004600 | 13 | 0 | 0.0 | 0.0 | 0.00 | 1.55 | 1.47 | 99 | 1014.6 |
| 20260905003102 | 13 | 0 | 0.0 | 0.0 | 0.03 | 1.55 | 1.47 | 99 | 1014.6 |
| 20260905001603 | 13 | 0 | 0.0 | 0.0 | 0.03 | 1.55 | 1.47 | 99 | 1014.6 |
| 20260905000114 | 12 | 0 | 0.0 | 0.0 | 0.05 | 1.55 | 1.47 | 99 | 1014.7 |
| 20260904234600 | 12 | 0 | 0.0 | 0.0 | 0.08 | 1.70 | 1.47 | 99 | 1014.6 |
| 20260904233102 | 12 | 0 | 0.0 | 0.0 | 0.10 | 1.68 | 1.47 | 99 | 1014.5 |
| 20260904231603 | 11 | 0 | 0.0 | 1.6 | 0.23 | 1.68 | 1.47 | 99 | 1014.6 |
| 20260904230108 | 11 | 0 | 0.0 | 3.2 | 0.30 | 1.65 | 1.45 | 98 | 1014.4 |
| 20260904224609 | 11 | 114 | 1.6 | 9.7 | 0.61 | 1.63 | 1.42 | 98 | 1014.5 |
| 20260904223106 | 11 | 117 | 4.8 | 9.7 | 1.17 | 1.55 | 1.32 | 97 | 1014.5 |
| 20260904221604 | 11 | 0 | 0.0 | 3.2 | 1.07 | 1.45 | 1.24 | 96 | 1014.2 |
| 20260904214607 | 12 | 136 | 11.3 | 25.7 | 0.61 | 1.04 | 0.79 | 93 | 1014.9 |
| 20260904213104 | 14 | 0 | 0.0 | 4.8 | 0.00 | 0.43 | 0.18 | 94 | 1013.9 |
| 20260904211603 | 15 | 0 | 0.0 | 6.4 | 0.00 | 0.43 | 0.18 | 91 | 1013.4 |
| 20260904210104 | 15 | 336 | 0.0 | 3.2 | 0.00 | 0.43 | 0.18 | 88 | 1013.3 |
| 20260904204608 | 15 | 336 | 1.6 | 8.0 | 0.00 | 0.43 | 0.18 | 84 | 1013.1 |
| 20260904203105 | 15 | 328 | 1.6 | 8.0 | 0.00 | 0.43 | 0.18 | 86 | 1013.0 |
| 20260904201636 | 16 | 288 | 3.2 | 14.5 | 0.00 | 0.43 | 0.18 | 85 | 1013.1 |
| 20260904200121 | 15 | 352 | 4.8 | 12.9 | 0.00 | 0.43 | 0.18 | 85 | 1013.2 |
| 20260904194613 | 15 | 346 | 3.2 | 6.4 | 0.00 | 0.56 | 0.18 | 89 | 1013.5 |
| 20260904193111 | 14 | 345 | 3.2 | 8.0 | 0.00 | 0.56 | 0.18 | 93 | 1013.4 |
| 20260904191603 | 13 | 351 | 3.2 | 8.0 | 0.00 | 0.56 | 0.18 | 93 | 1013.5 |
| 20260904190108 | 13 | 340 | 3.2 | 6.4 | 0.00 | 0.56 | 0.18 | 92 | 1013.4 |
| 20260904184605 | 13 | 333 | 1.6 | 6.4 | 0.00 | 0.56 | 0.18 | 98 | 1013.3 |
| 20260904183104 | 12 | 340 | 0.0 | 6.4 | 0.00 | 0.56 | 0.18 | 98 | 1013.3 |
| 20260904181600 | 12 | 348 | 4.8 | 9.7 | 0.00 | 0.56 | 0.18 | 99 | 1013.2 |
| 20260904180104 | 12 | 343 | 3.2 | 6.4 | 0.03 | 0.56 | 0.18 | 99 | 1013.1 |
| 20260904174602 | 12 | 360 | 1.6 | 6.4 | 0.03 | 0.56 | 0.18 | 100 | 1013.1 |
| 20260904173130 | 12 | 0 | 0.0 | 1.6 | 0.03 | 0.56 | 0.18 | 100 | 1013.1 |
| 20260904171611 | 12 | 0 | 0.0 | 3.2 | 0.00 | 0.53 | 0.15 | 99 | 1013.0 |
| 20260904164600 | 11 | 0 | 0.0 | 0.0 | 0.00 | 0.58 | 0.15 | 99 | 1013.2 |
| 20260904163104 | 11 | 0 | 0.0 | 0.0 | 0.00 | 0.58 | 0.15 | 99 | 1013.0 |
| 20260904161605 | 10 | 0 | 0.0 | 0.0 | 0.00 | 0.58 | 0.15 | 99 | 1012.8 |
| 20260904154606 | 10 | 0 | 0.0 | 0.0 | 0.00 | 0.64 | 0.15 | 100 | 1012.9 |
| 20260904153103 | 10 | 0 | 0.0 | 0.0 | 0.00 | 0.64 | 0.15 | 99 | 1012.9 |
| 20260904151615 | 10 | 0 | 0.0 | 0.0 | 0.03 | 0.64 | 0.15 | 99 | 1012.7 |
| 20260904150130 | 10 | 0 | 0.0 | 0.0 | 0.03 | 0.64 | 0.15 | 99 | 1012.4 |
| 20260904144605 | 9 | 0 | 0.0 | 0.0 | 0.03 | 0.64 | 0.15 | 99 | 1012.3 |
| 20260904143113 | 9 | 0 | 0.0 | 0.0 | 0.03 | 0.64 | 0.15 | 99 | 1012.3 |
| 20260904141617 | 9 | 0 | 0.0 | 0.0 | 0.00 | 0.61 | 0.13 | 99 | 1012.2 |
| 20260904140107 | 9 | 0 | 0.0 | 0.0 | 0.00 | 0.61 | 0.13 | 99 | 1012.1 |
| 20260904134625 | 8 | 0 | 0.0 | 0.0 | 0.00 | 0.61 | 0.13 | 99 | 1012.0 |
| 20260904133105 | 8 | 0 | 0.0 | 0.0 | 0.03 | 0.61 | 0.13 | 99 | 1011.7 |
| 20260904131559 | 8 | 0 | 0.0 | 0.0 | 0.05 | 0.61 | 0.13 | 99 | 1011.5 |
| 20260904130058 | 8 | 0 | 0.0 | 0.0 | 0.08 | 0.61 | 0.13 | 99 | 1011.4 |
| 20260904124557 | 8 | 0 | 0.0 | 0.0 | 0.08 | 0.61 | 0.13 | 99 | 1011.2 |
| 20260904123107 | 8 | 0 | 0.0 | 0.0 | 0.08 | 0.58 | 0.10 | 99 | 1011.2 |
| 20260904121602 | 8 | 0 | 0.0 | 0.0 | 0.05 | 0.56 | 0.08 | 99 | 1011.3 |
| 20260904120108 | 8 | 0 | 0.0 | 0.0 | 0.03 | 0.53 | 0.05 | 99 | 1011.2 |
| 20260904114601 | 8 | 0 | 0.0 | 0.0 | 0.05 | 0.53 | 0.05 | 99 | 1011.1 |
| 20260904113102 | 8 | 0 | 0.0 | 0.0 | 0.03 | 0.51 | 0.03 | 99 | 1011.0 |
| 20260904111607 | 8 | 0 | 0.0 | 0.0 | 0.03 | 0.51 | 0.03 | 99 | 1010.9 |
| 20260904110107 | 8 | 0 | 0.0 | 0.0 | 0.03 | 0.51 | 0.03 | 99 | 1011.0 |
| 20260904104600 | 8 | 0 | 0.0 | 0.0 | 0.00 | 0.48 | 0.00 | 99 | 1010.9 |
| 20260904103113 | 8 | 0 | 0.0 | 0.0 | 0.00 | 0.48 | 0.00 | 99 | 1010.9 |
| 20260904101603 | 8 | 0 | 0.0 | 0.0 | 0.00 | 0.48 | 0.00 | 99 | 1010.8 |
| 20260904100104 | 8 | 0 | 0.0 | 0.0 | 0.00 | 0.48 | 0.00 | 99 | 1010.7 |
| 20260904094605 | 8 | 0 | 0.0 | 0.0 | 0.00 | 0.51 | 0.00 | 99 | 1010.8 |
| 20260904093111 | 8 | 0 | 0.0 | 0.0 | 0.00 | 0.51 | 0.00 | 99 | 1010.7 |
| 20260904091601 | 8 | 0 | 0.0 | 0.0 | 0.00 | 0.51 | 0.00 | 98 | 1010.6 |
| 20260904090100 | 8 | 0 | 0.0 | 0.0 | 0.00 | 0.51 | 0.00 | 98 | 1010.4 |
| 20260904084604 | 8 | 0 | 0.0 | 0.0 | 0.00 | 0.53 | 0.00 | 98 | 1010.6 |
| 20260904083105 | 8 | 0 | 0.0 | 0.0 | 0.00 | 0.53 | 0.00 | 98 | 1010.6 |
| 20260904081601 | 9 | 0 | 0.0 | 0.0 | 0.00 | 0.53 | 0.00 | 98 | 1010.5 |